Location: Newark
(30.1000°N, 109.4667°E)
Time: 04:38:52
(UTC+00:00)

Courier 1B Rocket - Pass Details

Date: 18 February 2020
Orbit: 920 x 1202 km, 28.2° (Epoch: 04 April)

Event Time Altitude Azimuth Distance (km) Brightness Sun altitude
Exits shadow 21:15:30 63° 240° (WSW) 1,181 5.1 -27.4°
Maximum altitude 21:16:33 73° 187° (S) 1,121 5.1 -27.2°
Drops below altitude 10° 21:23:57 10° 104° (ESE) 3,014 8.5 -25.6°
Sets 21:26:50 0° 102° (ESE) 4,009 9.5 -25.0°
